Time,TemperatureF,DewpointF,PressureIn,WindDirection,WindDirectionDegrees,WindSpeedMPH,WindSpeedGustMPH,Humidity,HourlyPrecipIn,Conditions,Clouds,dailyrainin,SoftwareType,DateUTC
2013-11-07 00:01:00,54.3,37.6,29.80,SSW,198,4.8,4.8,53,0.00,,SKC,0.00,VWS V14.01,2013-11-07 05:01:00,
2013-11-07 00:06:00,54.3,38.5,29.80,SSW,210,5.6,5.6,55,0.00,,SKC,0.00,VWS V14.01,2013-11-07 05:06:00,
2013-11-07 00:11:00,54.3,38.5,29.80,SSW,200,0.0,0.0,55,0.00,,SKC,0.00,VWS V14.01,2013-11-07 05:11:00,
2013-11-07 00:16:00,54.3,38.5,29.80,SSW,205,0.0,0.0,55,0.00,,SKC,0.00,VWS V14.01,2013-11-07 05:16:00,
2013-11-07 00:21:00,54.1,38.3,29.80,SW,214,4.0,4.0,55,0.00,,SKC,0.00,VWS V14.01,2013-11-07 05:21:00,
2013-11-07 00:26:00,54.1,38.8,29.80,SSW,208,0.0,0.0,56,0.00,,SKC,0.00,VWS V14.01,2013-11-07 05:26:00,
2013-11-07 00:31:00,54.1,39.7,29.80,SSW,208,7.2,7.2,58,0.00,,SKC,0.00,VWS V14.01,2013-11-07 05:31:00,
2013-11-07 00:36:00,54.3,40.3,29.80,SW,216,4.0,4.0,59,0.00,,SKC,0.00,VWS V14.01,2013-11-07 05:36:00,
2013-11-07 00:41:00,54.3,40.3,29.80,WSW,246,5.6,5.6,59,0.00,,SKC,0.00,VWS V14.01,2013-11-07 05:41:00,
2013-11-07 00:46:00,54.3,40.8,29.80,SSW,193,0.0,2.7,60,0.00,,SKC,0.00,VWS V14.01,2013-11-07 05:46:00,
2013-11-07 00:51:00,54.3,40.8,29.80,SSW,209,4.8,4.8,60,0.00,,SKC,0.00,VWS V14.01,2013-11-07 05:51:00,
2013-11-07 00:56:00,54.3,41.6,29.80,SSW,202,0.0,4.9,62,0.00,,SKC,0.00,VWS V14.01,2013-11-07 05:56:00,
2013-11-07 01:01:00,54.3,41.2,29.80,SSW,205,0.0,0.0,61,0.00,,SKC,0.00,VWS V14.01,2013-11-07 06:01:00,
2013-11-07 01:06:00,54.3,41.2,29.80,SW,223,0.0,0.0,61,0.00,,SKC,0.00,VWS V14.01,2013-11-07 06:06:00,
2013-11-07 01:11:00,54.3,41.2,29.80,WSW,237,4.8,4.8,61,0.00,,SKC,0.00,VWS V14.01,2013-11-07 06:11:00,
2013-11-07 01:16:00,54.3,41.6,29.80,SW,222,0.0,0.0,62,0.00,,SKC,0.00,VWS V14.01,2013-11-07 06:16:00,
2013-11-07 01:21:00,54.3,41.6,29.80,SSW,206,0.0,0.0,62,0.00,,SKC,0.00,VWS V14.01,2013-11-07 06:21:00,
2013-11-07 01:26:00,54.3,41.6,29.80,SW,217,0.0,0.0,62,0.00,,SKC,0.00,VWS V14.01,2013-11-07 06:26:00,
2013-11-07 01:31:00,54.5,42.6,29.80,South,184,5.6,5.6,64,0.00,,SKC,0.00,VWS V14.01,2013-11-07 06:31:00,
2013-11-07 01:36:00,54.7,43.2,29.80,SSW,210,4.8,4.9,65,0.00,,SKC,0.00,VWS V14.01,2013-11-07 06:36:00,
2013-11-07 01:41:00,54.9,43.3,29.80,South,186,7.2,7.2,65,0.00,,SKC,0.00,VWS V14.01,2013-11-07 06:41:00,
2013-11-07 01:46:00,54.9,43.3,29.80,SW,228,0.0,0.0,65,0.00,,SKC,0.00,VWS V14.01,2013-11-07 06:46:00,
2013-11-07 01:51:00,54.7,42.8,29.80,WSW,238,0.0,0.0,64,0.00,,SKC,0.00,VWS V14.01,2013-11-07 06:51:00,
2013-11-07 01:56:00,54.7,42.8,29.80,SSW,207,0.0,0.0,64,0.00,,SKC,0.00,VWS V14.01,2013-11-07 06:56:00,
2013-11-07 02:01:00,54.5,42.6,29.80,SSW,204,0.0,0.0,64,0.00,,SKC,0.00,VWS V14.01,2013-11-07 07:01:00,
2013-11-07 02:06:00,54.5,42.6,29.80,SSW,201,4.0,4.0,64,0.00,,SKC,0.00,VWS V14.01,2013-11-07 07:06:00,
2013-11-07 02:11:00,54.5,42.6,29.80,SSW,210,0.0,0.0,64,0.00,,SKC,0.00,VWS V14.01,2013-11-07 07:11:00,
2013-11-07 02:16:00,54.5,42.6,29.80,SSW,208,0.0,0.0,64,0.00,,SKC,0.00,VWS V14.01,2013-11-07 07:16:00,
2013-11-07 02:21:00,54.5,42.6,29.80,West,264,0.0,0.0,64,0.00,,SKC,0.00,VWS V14.01,2013-11-07 07:21:00,
2013-11-07 02:26:00,54.5,42.2,29.80,WSW,256,0.0,0.0,63,0.00,,SKC,0.00,VWS V14.01,2013-11-07 07:26:00,
2013-11-07 02:31:00,54.3,42.0,29.80,WSW,256,0.0,0.0,63,0.00,,SKC,0.00,VWS V14.01,2013-11-07 07:31:00,
2013-11-07 02:36:00,54.1,41.8,29.80,SW,227,0.0,0.0,63,0.00,,SKC,0.00,VWS V14.01,2013-11-07 07:36:00,
2013-11-07 02:41:00,54.0,41.7,29.80,SW,227,0.0,0.0,63,0.00,,SKC,0.00,VWS V14.01,2013-11-07 07:41:00,
2013-11-07 02:46:00,53.8,41.5,29.80,SW,227,0.0,0.0,63,0.00,,SKC,0.00,VWS V14.01,2013-11-07 07:46:00,
2013-11-07 02:51:00,53.8,41.5,29.80,SW,229,0.0,0.0,63,0.00,,SKC,0.00,VWS V14.01,2013-11-07 07:51:00,
2013-11-07 02:56:00,53.8,41.5,29.80,SW,229,0.0,0.0,63,0.00,,SKC,0.00,VWS V14.01,2013-11-07 07:56:00,
2013-11-07 03:01:00,53.8,41.9,29.80,SW,229,0.0,0.0,64,0.00,,SKC,0.00,VWS V14.01,2013-11-07 08:01:00,
2013-11-07 03:06:00,54.0,42.1,29.80,SW,229,0.0,0.0,64,0.00,,SKC,0.00,VWS V14.01,2013-11-07 08:06:00,
2013-11-07 03:10:00,54.0,42.1,29.80,SW,229,0.0,0.0,64,0.00,,SKC,0.00,VWS V14.01,2013-11-07 08:10:00,
2013-11-07 03:15:00,54.0,42.5,29.80,SW,229,0.0,0.0,65,0.00,,SKC,0.00,VWS V14.01,2013-11-07 08:15:00,
2013-11-07 03:20:00,54.0,42.5,29.80,SW,229,0.0,0.0,65,0.00,,SKC,0.00,VWS V14.01,2013-11-07 08:20:00,
2013-11-07 03:25:00,54.0,42.5,29.80,SW,229,0.0,0.0,65,0.00,,SKC,0.00,VWS V14.01,2013-11-07 08:25:00,
2013-11-07 03:30:00,54.0,42.5,29.80,SW,229,0.0,0.0,65,0.00,,SKC,0.00,VWS V14.01,2013-11-07 08:30:00,
2013-11-07 03:35:00,54.1,42.7,29.80,SW,229,0.0,0.0,65,0.00,,SKC,0.00,VWS V14.01,2013-11-07 08:35:00,
2013-11-07 03:40:00,54.1,43.0,29.80,SW,229,0.0,0.0,66,0.00,,SKC,0.00,VWS V14.01,2013-11-07 08:40:00,
2013-11-07 03:45:00,54.1,43.0,29.80,SW,229,0.0,0.0,66,0.00,,SKC,0.00,VWS V14.01,2013-11-07 08:45:00,
2013-11-07 03:50:00,54.3,43.2,29.80,SW,229,0.0,0.0,66,0.00,,SKC,0.00,VWS V14.01,2013-11-07 08:50:00,
2013-11-07 03:55:00,54.5,43.4,29.80,SW,229,0.0,0.0,66,0.00,,SKC,0.00,VWS V14.01,2013-11-07 08:55:00,
2013-11-07 04:00:00,54.5,43.4,29.80,SW,229,0.0,0.0,66,0.00,,SKC,0.00,VWS V14.01,2013-11-07 09:00:00,
2013-11-07 04:05:00,54.5,43.4,29.80,SW,229,0.0,0.0,66,0.00,,SKC,0.00,VWS V14.01,2013-11-07 09:05:00,
2013-11-07 04:10:00,54.5,43.8,29.80,SW,229,0.0,0.0,67,0.00,,SKC,0.00,VWS V14.01,2013-11-07 09:10:00,
2013-11-07 04:15:00,54.5,43.8,29.80,SW,229,0.0,0.0,67,0.00,,SKC,0.00,VWS V14.01,2013-11-07 09:15:00,
2013-11-07 04:20:00,54.5,43.8,29.80,SW,229,0.0,0.0,67,0.00,,SKC,0.00,VWS V14.01,2013-11-07 09:20:00,
2013-11-07 04:25:00,54.5,43.8,29.80,SW,229,0.0,0.0,67,0.00,,SKC,0.00,VWS V14.01,2013-11-07 09:25:00,
2013-11-07 04:30:00,54.7,44.0,29.80,SW,224,0.0,0.0,67,0.00,,SKC,0.00,VWS V14.01,2013-11-07 09:30:00,
2013-11-07 04:35:00,54.9,44.9,29.80,SW,219,0.0,0.0,69,0.00,,SKC,0.00,VWS V14.01,2013-11-07 09:35:00,
2013-11-07 04:40:00,55.2,45.6,29.80,SSW,193,0.0,0.0,70,0.00,,SKC,0.00,VWS V14.01,2013-11-07 09:40:00,
2013-11-07 04:45:00,55.4,45.8,29.80,SSW,197,4.8,4.8,70,0.00,,SKC,0.00,VWS V14.01,2013-11-07 09:45:00,
2013-11-07 04:50:00,55.6,46.0,29.80,SSW,198,0.0,0.0,70,0.00,,SKC,0.00,VWS V14.01,2013-11-07 09:50:00,
2013-11-07 04:55:00,55.8,46.1,29.80,SSW,210,0.0,0.0,70,0.00,,SKC,0.00,VWS V14.01,2013-11-07 09:55:00,
2013-11-07 05:00:00,55.9,46.3,29.80,SSW,210,0.0,0.0,70,0.00,,SKC,0.00,VWS V14.01,2013-11-07 10:00:00,
2013-11-07 05:05:00,55.9,46.3,29.80,SSW,210,0.0,0.0,70,0.00,,SKC,0.00,VWS V14.01,2013-11-07 10:05:00,
2013-11-07 05:10:00,55.9,45.9,29.80,SSW,210,0.0,0.0,69,0.00,,SKC,0.00,VWS V14.01,2013-11-07 10:10:00,
2013-11-07 05:15:00,55.9,46.3,29.80,SSW,204,0.0,0.0,70,0.00,,SKC,0.00,VWS V14.01,2013-11-07 10:15:00,
2013-11-07 05:20:00,55.9,46.3,29.80,SW,225,4.0,4.9,70,0.00,,SKC,0.00,VWS V14.01,2013-11-07 10:20:00,
2013-11-07 05:25:00,56.3,47.0,29.80,SSW,199,5.6,5.6,71,0.00,,SKC,0.00,VWS V14.01,2013-11-07 10:25:00,
2013-11-07 05:30:00,56.3,47.0,29.80,SSE,167,0.0,3.6,71,0.00,,SKC,0.00,VWS V14.01,2013-11-07 10:30:00,
2013-11-07 05:35:00,56.7,47.8,29.80,South,177,4.8,4.8,72,0.00,,SKC,0.00,VWS V14.01,2013-11-07 10:35:00,
2013-11-07 05:40:00,56.8,48.3,29.80,SW,218,4.0,4.0,73,0.00,,SKC,0.00,VWS V14.01,2013-11-07 10:40:00,
2013-11-07 05:45:00,56.8,48.3,29.80,West,275,0.0,0.0,73,0.00,,SKC,0.00,VWS V14.01,2013-11-07 10:45:00,
2013-11-07 05:50:00,56.8,47.9,29.80,West,275,0.0,0.0,72,0.00,,SKC,0.00,VWS V14.01,2013-11-07 10:50:00,
2013-11-07 05:55:00,56.8,47.9,29.80,West,274,4.0,4.0,72,0.00,,SKC,0.00,VWS V14.01,2013-11-07 10:55:00,
2013-11-07 06:00:00,56.8,47.9,29.80,SSE,163,0.0,0.0,72,0.00,,SKC,0.00,VWS V14.01,2013-11-07 11:00:00,
2013-11-07 06:05:00,56.8,47.9,29.80,SSE,167,0.0,0.0,72,0.00,,SKC,0.00,VWS V14.01,2013-11-07 11:05:00,
2013-11-07 06:10:00,56.8,47.9,29.80,South,186,0.0,0.0,72,0.00,,SKC,0.00,VWS V14.01,2013-11-07 11:10:00,
2013-11-07 06:15:00,56.8,47.9,29.80,SSW,204,4.8,4.8,72,0.00,,SKC,0.00,VWS V14.01,2013-11-07 11:15:00,
2013-11-07 06:20:00,57.0,48.1,29.80,SW,221,0.0,3.6,72,0.00,,SKC,0.00,VWS V14.01,2013-11-07 11:20:00,
2013-11-07 06:25:00,57.2,48.3,29.80,SSW,193,4.8,4.8,72,0.00,,SKC,0.00,VWS V14.01,2013-11-07 11:25:00,
2013-11-07 06:30:00,57.4,48.8,29.80,South,186,4.8,4.8,73,0.00,,SKC,0.00,VWS V14.01,2013-11-07 11:30:00,
2013-11-07 06:34:00,57.6,49.0,29.80,SSW,208,5.6,5.6,73,0.00,,SKC,0.00,VWS V14.01,2013-11-07 11:34:00,
2013-11-07 06:39:00,57.7,49.2,29.80,SW,220,0.0,0.0,73,0.00,,SKC,0.00,VWS V14.01,2013-11-07 11:39:00,
2013-11-07 06:44:00,57.9,49.0,29.80,SSW,212,0.0,0.0,72,0.00,,SKC,0.00,VWS V14.01,2013-11-07 11:44:00,
2013-11-07 06:49:00,57.9,49.0,29.80,SSW,205,0.0,0.0,72,0.00,,SKC,0.00,VWS V14.01,2013-11-07 11:49:00,
2013-11-07 06:54:00,58.1,49.1,29.80,SSW,197,5.6,5.6,72,0.00,,SKC,0.24,VWS V14.01,2013-11-07 11:54:00,
2013-11-07 06:59:00,58.3,49.3,29.80,South,169,4.8,4.8,72,0.00,,SKC,0.00,VWS V14.01,2013-11-07 11:59:00,
2013-11-07 07:04:00,58.5,49.1,29.80,South,177,4.0,4.0,71,0.00,,SKC,0.00,VWS V14.01,2013-11-07 12:04:00,
2013-11-07 07:09:00,58.5,48.7,29.80,South,190,6.4,6.4,70,0.00,,SKC,0.00,VWS V14.01,2013-11-07 12:09:00,
2013-11-07 07:14:00,58.5,48.3,29.80,SSW,204,4.0,4.0,69,0.00,,SKC,0.00,VWS V14.01,2013-11-07 12:14:00,
2013-11-07 07:19:00,58.6,48.5,29.80,SW,226,4.8,4.8,69,0.00,,SKC,0.00,VWS V14.01,2013-11-07 12:19:00,
2013-11-07 07:24:00,58.8,48.7,29.80,South,187,0.0,2.7,69,0.00,,SKC,0.00,VWS V14.01,2013-11-07 12:24:00,
2013-11-07 07:29:00,58.8,48.3,29.80,SSE,165,4.0,4.0,68,0.00,,SKC,0.00,VWS V14.01,2013-11-07 12:29:00,
2013-11-07 07:34:00,58.8,48.3,29.80,SSW,213,0.0,2.7,68,0.00,,SKC,0.00,VWS V14.01,2013-11-07 12:34:00,
2013-11-07 07:39:00,59.0,48.1,29.80,SW,220,0.0,0.0,67,0.00,,SKC,0.00,VWS V14.01,2013-11-07 12:39:00,
2013-11-07 07:44:00,59.2,47.8,29.80,SW,233,0.0,0.0,66,0.00,,SKC,0.00,VWS V14.01,2013-11-07 12:44:00,
2013-11-07 07:49:00,59.2,47.4,29.80,SSE,165,0.0,0.0,65,0.00,,SKC,0.00,VWS V14.01,2013-11-07 12:49:00,
2013-11-07 07:54:00,59.2,47.0,29.80,South,187,4.0,4.0,64,0.00,,SKC,0.00,VWS V14.01,2013-11-07 12:54:00,
2013-11-07 07:59:00,59.2,46.2,29.80,SSW,207,4.8,4.8,62,0.00,,SKC,0.00,VWS V14.01,2013-11-07 12:59:00,
2013-11-07 08:04:00,59.4,46.8,29.80,ESE,123,0.0,0.0,63,0.00,,SKC,0.00,VWS V14.01,2013-11-07 13:04:00,
2013-11-07 08:09:00,59.5,46.5,29.80,SSW,211,4.8,4.8,62,0.00,,SKC,0.00,VWS V14.01,2013-11-07 13:09:00,
2013-11-07 08:14:00,59.5,45.7,29.80,WSW,243,0.0,4.9,60,0.00,,SKC,0.00,VWS V14.01,2013-11-07 13:14:00,
2013-11-07 08:19:00,59.7,44.9,29.80,South,175,0.0,0.0,58,0.00,,SKC,0.00,VWS V14.01,2013-11-07 13:19:00,
2013-11-07 08:24:00,59.7,44.5,29.80,SW,214,4.8,4.8,57,0.00,,SKC,0.00,VWS V14.01,2013-11-07 13:24:00,
2013-11-07 08:29:00,59.9,43.7,29.80,WSW,251,0.0,4.0,55,0.00,,SKC,0.00,VWS V14.01,2013-11-07 13:29:00,
2013-11-07 08:34:00,60.1,43.4,29.80,NW,317,0.0,0.0,54,0.00,,SKC,0.00,VWS V14.01,2013-11-07 13:34:00,
2013-11-07 08:38:00,60.3,42.6,29.80,South,188,0.0,0.0,52,0.00,,SKC,0.00,VWS V14.01,2013-11-07 13:38:00,
2013-11-07 08:43:00,60.3,41.6,29.80,SW,221,5.6,5.6,50,0.00,,SKC,0.00,VWS V14.01,2013-11-07 13:43:00,
2013-11-07 08:48:00,60.4,41.2,29.80,SSW,213,0.0,0.0,49,0.00,,SKC,0.00,VWS V14.01,2013-11-07 13:48:00,
2013-11-07 08:53:00,60.4,41.2,29.80,SSW,203,0.0,0.0,49,0.00,,SKC,0.00,VWS V14.01,2013-11-07 13:53:00,
2013-11-07 08:58:00,60.4,40.7,29.80,South,186,5.6,5.6,48,0.00,,SKC,0.00,VWS V14.01,2013-11-07 13:58:00,
2013-11-07 09:03:00,60.4,40.7,29.80,South,189,8.9,8.9,48,0.00,,SKC,0.00,VWS V14.01,2013-11-07 14:03:00,
2013-11-07 09:08:00,60.4,40.1,29.80,SSW,209,0.0,0.0,47,0.00,,SKC,0.00,VWS V14.01,2013-11-07 14:08:00,
2013-11-07 09:13:00,60.4,40.1,29.80,SW,227,0.0,0.0,47,0.00,,SKC,0.00,VWS V14.01,2013-11-07 14:13:00,
2013-11-07 09:18:00,60.3,40.0,29.80,SSW,195,0.0,0.0,47,0.00,,SKC,0.00,VWS V14.01,2013-11-07 14:18:00,
2013-11-07 09:23:00,60.3,40.0,29.80,WSW,240,0.0,0.0,47,0.00,,SKC,0.00,VWS V14.01,2013-11-07 14:23:00,
2013-11-07 09:28:00,60.1,40.3,29.80,South,187,0.0,0.0,48,0.00,,SKC,0.00,VWS V14.01,2013-11-07 14:28:00,
2013-11-07 09:33:00,59.7,41.1,29.80,WSW,254,0.0,0.0,50,0.00,,SKC,0.00,VWS V14.01,2013-11-07 14:33:00,
2013-11-07 09:38:00,59.4,40.7,29.80,WSW,254,0.0,0.0,50,0.00,,SKC,0.00,VWS V14.01,2013-11-07 14:38:00,
2013-11-07 09:43:00,59.4,41.8,29.80,WSW,254,0.0,0.0,52,0.00,,SKC,0.00,VWS V14.01,2013-11-07 14:43:00,
2013-11-07 09:48:00,59.0,41.9,29.80,WSW,254,0.0,0.0,53,0.00,,SKC,0.00,VWS V14.01,2013-11-07 14:48:00,
2013-11-07 09:53:00,58.8,43.2,29.80,WSW,254,0.0,0.0,56,0.00,,SKC,0.00,VWS V14.01,2013-11-07 14:53:00,
2013-11-07 09:58:00,58.8,44.5,29.80,WSW,254,0.0,0.0,59,0.00,,SKC,0.00,VWS V14.01,2013-11-07 14:58:00,
2013-11-07 10:03:00,58.6,45.2,29.80,SW,224,0.0,0.0,61,0.00,,SKC,0.00,VWS V14.01,2013-11-07 15:03:00,
2013-11-07 10:08:00,58.8,45.4,29.80,SW,224,0.0,0.0,61,0.00,,SKC,0.00,VWS V14.01,2013-11-07 15:08:00,
2013-11-07 10:13:00,58.8,45.8,29.80,SW,224,0.0,0.0,62,0.00,,SKC,0.00,VWS V14.01,2013-11-07 15:13:00,
2013-11-07 10:18:00,58.8,46.3,29.80,SW,224,0.0,0.0,63,0.00,,SKC,0.00,VWS V14.01,2013-11-07 15:18:00,
2013-11-07 10:23:00,59.0,46.8,29.80,SW,224,0.0,0.0,64,0.00,,SKC,0.00,VWS V14.01,2013-11-07 15:23:00,
2013-11-07 10:28:00,59.0,46.8,29.80,SW,224,0.0,0.0,64,0.00,,SKC,0.00,VWS V14.01,2013-11-07 15:28:00,
2013-11-07 10:33:00,59.0,47.3,29.80,SW,224,0.0,0.0,65,0.00,,SKC,0.00,VWS V14.01,2013-11-07 15:33:00,
2013-11-07 10:38:00,59.2,47.8,29.80,SW,224,0.0,0.0,66,0.00,,SKC,0.00,VWS V14.01,2013-11-07 15:38:00,
2013-11-07 10:43:00,59.0,48.1,29.80,SW,236,0.0,0.0,67,0.00,,SKC,0.00,VWS V14.01,2013-11-07 15:43:00,
2013-11-07 10:48:00,59.0,48.1,29.80,SW,236,0.0,0.0,67,0.00,,SKC,0.00,VWS V14.01,2013-11-07 15:48:00,
2013-11-07 10:53:00,59.0,48.1,29.80,SW,236,0.0,0.0,67,0.00,,SKC,0.00,VWS V14.01,2013-11-07 15:53:00,
2013-11-07 10:58:00,59.0,48.1,29.80,SW,236,0.0,0.0,67,0.00,,SKC,0.00,VWS V14.01,2013-11-07 15:58:00,
2013-11-07 11:03:00,59.0,48.1,29.80,SW,236,0.0,0.0,67,0.00,,SKC,0.00,VWS V14.01,2013-11-07 16:03:00,
2013-11-07 11:08:00,59.0,48.1,29.80,SW,236,0.0,0.0,67,0.00,,SKC,0.00,VWS V14.01,2013-11-07 16:08:00,
2013-11-07 11:13:00,58.8,48.7,29.80,SW,236,0.0,0.0,69,0.00,,SKC,0.00,VWS V14.01,2013-11-07 16:13:00,
2013-11-07 11:18:00,58.8,49.1,29.80,SW,236,0.0,0.0,70,0.00,,SKC,0.00,VWS V14.01,2013-11-07 16:18:00,
2013-11-07 11:23:00,58.8,49.1,29.80,SW,236,0.0,0.0,70,0.00,,SKC,0.00,VWS V14.01,2013-11-07 16:23:00,
2013-11-07 11:28:00,58.8,49.1,29.80,SW,236,0.0,0.0,70,0.00,,SKC,0.00,VWS V14.01,2013-11-07 16:28:00,
2013-11-07 11:33:00,58.8,49.5,29.80,SW,236,0.0,0.0,71,0.00,,SKC,0.00,VWS V14.01,2013-11-07 16:33:00,
2013-11-07 11:38:00,58.8,49.5,29.80,SW,236,0.0,0.0,71,0.00,,SKC,0.00,VWS V14.01,2013-11-07 16:38:00,
2013-11-07 11:43:00,58.8,49.5,29.80,SW,236,0.0,0.0,71,0.00,,SKC,0.00,VWS V14.01,2013-11-07 16:43:00,
2013-11-07 11:48:00,58.8,49.5,29.80,SW,236,0.0,0.0,71,0.00,,SKC,0.00,VWS V14.01,2013-11-07 16:48:00,
2013-11-07 11:53:00,58.8,49.8,29.80,SW,236,0.0,0.0,72,0.00,,SKC,0.00,VWS V14.01,2013-11-07 16:53:00,
2013-11-07 11:58:00,58.8,49.8,29.80,SW,236,0.0,0.0,72,0.00,,SKC,0.00,VWS V14.01,2013-11-07 16:58:00,
2013-11-07 12:03:00,58.8,49.8,29.80,SW,236,0.0,0.0,72,0.00,,SKC,0.00,VWS V14.01,2013-11-07 17:03:00,
2013-11-07 12:08:00,58.8,49.8,29.80,SW,236,0.0,0.0,72,0.00,,SKC,0.00,VWS V14.01,2013-11-07 17:08:00,
2013-11-07 12:13:00,58.8,49.8,29.80,SW,236,0.0,0.0,72,0.00,,SKC,0.00,VWS V14.01,2013-11-07 17:13:00,
2013-11-07 12:18:00,59.0,50.0,29.80,SW,236,0.0,0.0,72,0.00,,SKC,0.00,VWS V14.01,2013-11-07 17:18:00,
2013-11-07 12:23:00,59.2,50.5,29.80,SW,236,0.0,0.0,73,0.00,,SKC,0.00,VWS V14.01,2013-11-07 17:23:00,
2013-11-07 12:28:00,59.2,50.5,29.80,SW,236,0.0,0.0,73,0.00,,SKC,0.00,VWS V14.01,2013-11-07 17:28:00,
2013-11-07 12:33:00,59.2,50.5,29.80,SW,236,0.0,0.0,73,0.00,,SKC,0.00,VWS V14.01,2013-11-07 17:33:00,
2013-11-07 12:38:00,59.2,50.5,29.80,SSW,205,0.0,0.0,73,0.00,,SKC,0.00,VWS V14.01,2013-11-07 17:38:00,
2013-11-07 12:43:00,59.2,50.5,29.80,SSW,205,0.0,0.0,73,0.00,,SKC,0.00,VWS V14.01,2013-11-07 17:43:00,
2013-11-07 12:48:00,59.2,50.5,29.80,SSW,205,0.0,0.0,73,0.00,,SKC,0.00,VWS V14.01,2013-11-07 17:48:00,
2013-11-07 12:53:00,59.4,51.1,29.80,SSW,205,0.0,0.0,74,0.00,,SKC,0.00,VWS V14.01,2013-11-07 17:53:00,
2013-11-07 12:58:00,59.2,50.5,29.80,West,281,5.6,5.6,73,0.00,,SKC,0.00,VWS V14.01,2013-11-07 17:58:00,
2013-11-07 13:03:00,57.9,44.1,29.80,NW,316,4.8,4.8,60,0.00,,SKC,0.00,VWS V14.01,2013-11-07 18:03:00,
2013-11-07 13:08:00,57.6,44.7,29.80,NE,34,0.0,0.0,62,0.00,,SKC,0.00,VWS V14.01,2013-11-07 18:08:00,
2013-11-07 13:13:00,57.0,43.7,29.80,NE,41,6.4,6.4,61,0.00,,SKC,0.00,VWS V14.01,2013-11-07 18:13:00,
2013-11-07 13:18:00,56.3,40.4,29.80,NW,314,10.5,10.5,55,0.00,,SKC,0.00,VWS V14.01,2013-11-07 18:18:00,
2013-11-07 13:23:00,55.6,37.8,29.80,ESE,115,4.8,4.8,51,0.00,,SKC,0.00,VWS V14.01,2013-11-07 18:23:00,
2013-11-07 13:28:00,55.2,37.9,29.80,NW,316,5.6,5.6,52,0.00,,SKC,0.00,VWS V14.01,2013-11-07 18:28:00,
2013-11-07 13:33:00,54.9,38.1,29.80,East,99,0.0,4.0,53,0.00,,SKC,0.00,VWS V14.01,2013-11-07 18:33:00,
2013-11-07 13:38:00,54.9,38.1,29.80,NE,47,4.8,4.8,53,0.00,,SKC,0.00,VWS V14.01,2013-11-07 18:38:00,
2013-11-07 13:42:00,54.9,38.1,29.80,NNE,22,4.0,4.0,53,0.04,,SKC,0.04,VWS V14.01,2013-11-07 18:42:00,
2013-11-07 13:47:00,54.0,37.7,29.80,NNE,31,0.0,0.0,54,0.04,,SKC,0.04,VWS V14.01,2013-11-07 18:47:00,
2013-11-07 13:52:00,53.8,37.5,29.80,NNW,337,0.0,0.0,54,0.04,,SKC,0.04,VWS V14.01,2013-11-07 18:52:00,
2013-11-07 13:57:00,53.8,37.5,29.80,North,7,0.0,0.0,54,0.04,,SKC,0.04,VWS V14.01,2013-11-07 18:57:00,
2013-11-07 14:02:00,53.1,37.3,29.80,NW,318,0.0,0.0,55,0.04,,SKC,0.04,VWS V14.01,2013-11-07 19:02:00,
2013-11-07 14:07:00,53.1,37.3,29.80,North,357,4.8,4.8,55,0.04,,SKC,0.04,VWS V14.01,2013-11-07 19:07:00,
2013-11-07 14:12:00,52.9,37.6,29.80,North,357,4.0,4.0,56,0.04,,SKC,0.04,VWS V14.01,2013-11-07 19:12:00,
2013-11-07 14:17:00,52.7,37.5,29.35,North,1,0.0,0.0,56,0.04,,SKC,0.04,VWS V14.01,2013-11-07 19:17:00,
2013-11-07 14:22:00,52.2,36.0,29.35,NE,38,6.4,6.4,54,0.04,,SKC,0.04,VWS V14.01,2013-11-07 19:22:00,
2013-11-07 14:27:00,52.0,35.4,29.35,North,0,0.0,0.0,53,0.04,,SKC,0.04,VWS V14.01,2013-11-07 19:27:00,
2013-11-07 14:32:00,51.6,35.1,29.35,NNE,19,0.0,0.0,53,0.04,,SKC,0.04,VWS V14.01,2013-11-07 19:32:00,
2013-11-07 14:37:00,51.4,34.4,29.35,North,353,4.8,4.8,52,0.04,,SKC,0.04,VWS V14.01,2013-11-07 19:37:00,
2013-11-07 14:42:00,51.3,34.2,29.35,NNE,31,0.0,0.0,52,0.00,,SKC,0.04,VWS V14.01,2013-11-07 19:42:00,
2013-11-07 14:47:00,51.1,34.1,29.35,North,9,4.8,4.8,52,0.00,,SKC,0.04,VWS V14.01,2013-11-07 19:47:00,
2013-11-07 14:52:00,51.1,34.6,29.35,NNE,32,5.6,5.6,53,0.00,,SKC,0.04,VWS V14.01,2013-11-07 19:52:00,
2013-11-07 14:57:00,51.1,34.6,29.35,NNW,333,0.0,0.0,53,0.00,,SKC,0.04,VWS V14.01,2013-11-07 19:57:00,
2013-11-07 15:02:00,50.7,33.8,29.35,North,353,0.0,5.4,52,0.00,,SKC,0.04,VWS V14.01,2013-11-07 20:02:00,
2013-11-07 15:07:00,50.7,33.8,29.35,East,87,7.2,7.2,52,0.00,,SKC,0.04,VWS V14.01,2013-11-07 20:07:00,
2013-11-07 15:12:00,50.7,33.8,29.35,NNE,26,10.5,10.5,52,0.00,,SKC,0.04,VWS V14.01,2013-11-07 20:12:00,
2013-11-07 15:17:00,50.7,33.8,29.35,WNW,296,4.8,5.4,52,0.00,,SKC,0.04,VWS V14.01,2013-11-07 20:17:00,
2013-11-07 15:22:00,50.7,33.8,29.35,North,1,4.8,5.4,52,0.00,,SKC,0.04,VWS V14.01,2013-11-07 20:22:00,
2013-11-07 15:27:00,48.9,30.6,29.35,NE,44,11.3,11.3,49,0.00,,SKC,0.04,VWS V14.01,2013-11-07 20:27:00,
2013-11-07 15:32:00,48.6,29.3,29.35,SW,219,4.8,4.8,47,0.00,,SKC,0.04,VWS V14.01,2013-11-07 20:32:00,
2013-11-07 15:37:00,48.4,28.6,29.35,North,6,7.2,7.2,46,0.00,,SKC,0.04,VWS V14.01,2013-11-07 20:37:00,
2013-11-07 15:42:00,48.0,27.7,29.35,NW,315,0.0,3.1,45,0.00,,SKC,0.04,VWS V14.01,2013-11-07 20:42:00,
2013-11-07 15:47:00,48.0,27.2,29.35,NNW,338,4.8,4.8,44,0.00,,SKC,0.04,VWS V14.01,2013-11-07 20:47:00,
2013-11-07 15:52:00,47.8,25.9,29.35,WNW,286,5.6,6.3,42,0.00,,SKC,0.04,VWS V14.01,2013-11-07 20:52:00,
2013-11-07 15:57:00,47.7,25.7,29.35,East,86,8.9,8.9,42,0.00,,SKC,0.04,VWS V14.01,2013-11-07 20:57:00,
2013-11-07 16:02:00,47.7,25.7,29.35,NW,306,4.8,4.8,42,0.00,,SKC,0.04,VWS V14.01,2013-11-07 21:02:00,
2013-11-07 16:07:00,47.7,25.1,29.35,North,353,4.8,7.6,41,0.00,,SKC,0.04,VWS V14.01,2013-11-07 21:07:00,
2013-11-07 16:12:00,47.8,25.3,29.35,NW,321,5.6,5.6,41,0.00,,SKC,0.04,VWS V14.01,2013-11-07 21:12:00,
2013-11-07 16:17:00,47.7,25.1,29.35,NNW,334,7.2,7.2,41,0.00,,SKC,0.04,VWS V14.01,2013-11-07 21:17:00,
2013-11-07 16:22:00,47.7,24.5,29.35,NNW,334,4.8,4.8,40,0.00,,SKC,0.04,VWS V14.01,2013-11-07 21:22:00,
2013-11-07 16:27:00,47.7,24.5,29.35,East,100,6.4,6.4,40,0.00,,SKC,0.04,VWS V14.01,2013-11-07 21:27:00,
2013-11-07 16:32:00,47.5,23.8,29.35,NNE,32,5.6,5.6,39,0.00,,SKC,0.04,VWS V14.01,2013-11-07 21:32:00,
2013-11-07 16:37:00,47.3,24.2,29.35,SSW,208,5.6,5.6,40,0.00,,SKC,0.04,VWS V14.01,2013-11-07 21:37:00,
2013-11-07 16:42:00,47.3,24.2,29.35,NNW,327,0.0,3.1,40,0.00,,SKC,0.04,VWS V14.01,2013-11-07 21:42:00,
2013-11-07 16:47:00,47.3,24.2,29.35,North,0,0.0,3.1,40,0.00,,SKC,0.04,VWS V14.01,2013-11-07 21:47:00,
2013-11-07 16:52:00,46.8,23.1,29.35,WSW,243,6.4,6.4,39,0.00,,SKC,0.04,VWS V14.01,2013-11-07 21:52:00,
2013-11-07 16:57:00,46.6,23.0,29.35,SW,231,6.4,6.4,39,0.00,,SKC,0.04,VWS V14.01,2013-11-07 21:57:00,
2013-11-07 17:02:00,46.6,23.0,29.35,WNW,290,5.6,5.6,39,0.00,,SKC,0.04,VWS V14.01,2013-11-07 22:02:00,
2013-11-07 17:07:00,46.6,23.0,29.35,East,80,7.2,7.2,39,0.00,,SKC,0.04,VWS V14.01,2013-11-07 22:07:00,
2013-11-07 17:12:00,46.6,23.0,29.35,NNW,341,9.7,9.7,39,0.00,,SKC,0.04,VWS V14.01,2013-11-07 22:12:00,
2013-11-07 17:17:00,46.6,23.0,29.35,North,2,4.8,4.8,39,0.00,,SKC,0.04,VWS V14.01,2013-11-07 22:17:00,
2013-11-07 17:22:00,46.6,23.0,29.35,SSE,155,5.6,5.6,39,0.00,,SKC,0.04,VWS V14.01,2013-11-07 22:22:00,
2013-11-07 17:27:00,46.6,23.0,29.35,North,353,0.0,2.2,39,0.00,,SKC,0.04,VWS V14.01,2013-11-07 22:27:00,
2013-11-07 17:32:00,46.4,22.2,29.35,NE,50,0.0,0.0,38,0.00,,SKC,0.04,VWS V14.01,2013-11-07 22:32:00,
2013-11-07 17:37:00,46.2,22.6,29.35,South,181,5.6,5.6,39,0.00,,SKC,0.04,VWS V14.01,2013-11-07 22:37:00,
2013-11-07 17:42:00,46.2,22.6,29.35,NW,324,5.6,5.8,39,0.00,,SKC,0.04,VWS V14.01,2013-11-07 22:42:00,
2013-11-07 17:47:00,46.2,22.6,29.35,NNW,338,5.6,5.6,39,0.00,,SKC,0.04,VWS V14.01,2013-11-07 22:47:00,
2013-11-07 17:52:00,46.8,23.1,29.35,North,0,0.0,0.0,39,0.00,,SKC,0.04,VWS V14.01,2013-11-07 22:52:00,
2013-11-07 17:57:00,46.8,23.1,29.35,NNW,339,10.5,10.5,39,0.00,,SKC,0.04,VWS V14.01,2013-11-07 22:57:00,
2013-11-07 18:02:00,46.9,23.3,29.35,WSW,258,4.0,10.5,39,0.00,,SKC,0.04,VWS V14.01,2013-11-07 23:02:00,
2013-11-07 18:07:00,46.9,23.3,29.35,NNW,343,4.8,4.8,39,0.00,,SKC,0.04,VWS V14.01,2013-11-07 23:07:00,
2013-11-07 18:12:00,46.9,23.3,29.35,North,1,0.0,2.7,39,0.00,,SKC,0.04,VWS V14.01,2013-11-07 23:12:00,
2013-11-07 18:17:00,46.9,23.3,29.35,NNW,340,6.4,6.4,39,0.00,,SKC,0.04,VWS V14.01,2013-11-07 23:17:00,
2013-11-07 18:22:00,46.9,23.3,29.35,ENE,68,6.4,6.4,39,0.00,,SKC,0.04,VWS V14.01,2013-11-07 23:22:00,
2013-11-07 18:27:00,45.9,18.4,29.35,North,7,6.4,6.4,33,0.00,,SKC,0.04,VWS V14.01,2013-11-07 23:27:00,
2013-11-07 18:32:00,45.5,17.4,29.35,NNW,344,4.8,5.4,32,0.00,,SKC,0.04,VWS V14.01,2013-11-07 23:32:00,
2013-11-07 18:37:00,45.5,17.4,29.35,NNE,26,0.0,0.0,32,0.00,,SKC,0.04,VWS V14.01,2013-11-07 23:37:00,
2013-11-07 18:42:00,45.5,17.4,29.35,ENE,62,4.8,4.8,32,0.00,,SKC,0.04,VWS V14.01,2013-11-07 23:42:00,
2013-11-07 18:47:00,45.0,16.2,29.35,North,349,5.6,5.6,31,0.00,,SKC,0.04,VWS V14.01,2013-11-07 23:47:00,
2013-11-07 18:52:00,45.0,16.2,29.35,NE,52,4.8,4.8,31,0.00,,SKC,0.04,VWS V14.01,2013-11-07 23:52:00,
2013-11-07 18:57:00,45.0,16.2,29.35,NE,54,5.6,5.6,31,0.00,,SKC,0.04,VWS V14.01,2013-11-07 23:57:00,
2013-11-07 19:02:00,45.0,16.2,29.35,NNW,329,6.4,8.1,31,0.00,,SKC,0.04,VWS V14.01,2013-11-08 00:02:00,
2013-11-07 19:07:00,45.0,16.2,29.35,SW,232,10.5,10.5,31,0.00,,SKC,0.04,VWS V14.01,2013-11-08 00:07:00,
2013-11-07 19:12:00,45.0,16.2,29.35,North,6,0.0,2.7,31,0.00,,SKC,0.04,VWS V14.01,2013-11-08 00:12:00,
2013-11-07 19:17:00,45.0,16.2,29.35,North,353,6.4,6.4,31,0.00,,SKC,0.04,VWS V14.01,2013-11-08 00:17:00,
2013-11-07 19:22:00,45.0,16.2,29.35,West,280,9.7,9.7,31,0.00,,SKC,0.04,VWS V14.01,2013-11-08 00:22:00,
2013-11-07 19:27:00,45.0,16.2,29.35,NNW,330,5.6,5.6,31,0.00,,SKC,0.04,VWS V14.01,2013-11-08 00:27:00,
2013-11-07 19:32:00,45.0,16.2,29.35,East,99,4.8,4.8,31,0.00,,SKC,0.04,VWS V14.01,2013-11-08 00:32:00,
2013-11-07 19:37:00,45.0,16.2,29.35,ENE,73,7.2,7.2,31,0.00,,SKC,0.04,VWS V14.01,2013-11-08 00:37:00,
2013-11-07 19:42:00,45.0,16.2,29.35,SE,127,14.9,14.9,31,0.00,,SKC,0.04,VWS V14.01,2013-11-08 00:42:00,
2013-11-07 19:47:00,45.0,16.2,29.35,ENE,64,0.0,2.7,31,0.00,,SKC,0.04,VWS V14.01,2013-11-08 00:47:00,
2013-11-07 19:52:00,45.0,16.2,29.35,North,349,0.0,2.7,31,0.00,,SKC,0.04,VWS V14.01,2013-11-08 00:52:00,
2013-11-07 19:57:00,44.1,14.6,29.35,NNW,327,4.8,4.8,30,0.00,,SKC,0.04,VWS V14.01,2013-11-08 00:57:00,
2013-11-07 20:01:00,44.1,14.6,29.35,NNW,333,4.8,4.8,30,0.00,,SKC,0.04,VWS V14.01,2013-11-08 01:01:00,
2013-11-07 20:06:00,43.7,15.1,29.35,NE,39,0.0,0.0,31,0.00,,SKC,0.04,VWS V14.01,2013-11-08 01:06:00,
2013-11-07 20:11:00,43.5,14.2,29.35,NNE,19,4.0,4.0,30,0.00,,SKC,0.04,VWS V14.01,2013-11-08 01:11:00,
2013-11-07 20:16:00,43.3,14.0,29.35,NE,43,10.5,10.5,30,0.00,,SKC,0.04,VWS V14.01,2013-11-08 01:16:00,
2013-11-07 20:21:00,43.5,14.2,29.35,NNW,330,5.6,5.6,30,0.00,,SKC,0.04,VWS V14.01,2013-11-08 01:21:00,
2013-11-07 20:26:00,43.5,14.2,29.35,WSW,238,0.0,0.0,30,0.00,,SKC,0.04,VWS V14.01,2013-11-08 01:26:00,
2013-11-07 20:31:00,43.3,14.0,29.35,SE,134,0.0,0.0,30,0.00,,SKC,0.04,VWS V14.01,2013-11-08 01:31:00,
2013-11-07 20:36:00,43.0,13.7,29.35,North,0,0.0,0.0,30,0.00,,SKC,0.04,VWS V14.01,2013-11-08 01:36:00,
2013-11-07 20:41:00,43.0,13.7,29.35,NNE,15,0.0,0.0,30,0.00,,SKC,0.04,VWS V14.01,2013-11-08 01:41:00,
2013-11-07 20:46:00,42.8,14.3,29.35,NNE,15,0.0,0.0,31,0.00,,SKC,0.04,VWS V14.01,2013-11-08 01:46:00,
2013-11-07 20:51:00,42.4,14.0,29.35,NNW,342,0.0,0.0,31,0.00,,SKC,0.04,VWS V14.01,2013-11-08 01:51:00,
2013-11-07 20:56:00,42.4,14.0,29.35,NW,325,0.0,0.0,31,0.00,,SKC,0.04,VWS V14.01,2013-11-08 01:56:00,
2013-11-07 21:01:00,42.3,13.8,29.35,NW,325,0.0,0.0,31,0.00,,SKC,0.04,VWS V14.01,2013-11-08 02:01:00,
2013-11-07 21:06:00,42.1,14.4,29.35,NNE,15,0.0,0.0,32,0.00,,SKC,0.04,VWS V14.01,2013-11-08 02:06:00,
2013-11-07 21:11:00,41.7,14.1,29.35,NNE,15,0.0,0.0,32,0.00,,SKC,0.04,VWS V14.01,2013-11-08 02:11:00,
2013-11-07 21:16:00,41.4,13.7,29.35,NNE,15,0.0,0.0,32,0.00,,SKC,0.04,VWS V14.01,2013-11-08 02:16:00,
2013-11-07 21:21:00,41.2,13.6,29.35,North,353,0.0,0.0,32,0.00,,SKC,0.04,VWS V14.01,2013-11-08 02:21:00,
2013-11-07 21:26:00,41.2,14.3,29.35,North,353,0.0,0.0,33,0.00,,SKC,0.04,VWS V14.01,2013-11-08 02:26:00,
2013-11-07 21:31:00,41.0,14.1,29.35,West,268,0.0,0.0,33,0.00,,SKC,0.04,VWS V14.01,2013-11-08 02:31:00,
2013-11-07 21:36:00,41.0,14.1,29.35,NNW,331,0.0,0.0,33,0.00,,SKC,0.04,VWS V14.01,2013-11-08 02:36:00,
2013-11-07 21:41:00,41.0,14.1,29.35,NNW,338,0.0,0.0,33,0.00,,SKC,0.04,VWS V14.01,2013-11-08 02:41:00,
2013-11-07 21:46:00,41.0,14.8,29.35,NNW,338,0.0,0.0,34,0.00,,SKC,0.04,VWS V14.01,2013-11-08 02:46:00,
2013-11-07 21:51:00,40.6,14.5,29.35,NNW,338,0.0,0.0,34,0.00,,SKC,0.04,VWS V14.01,2013-11-08 02:51:00,
2013-11-07 21:56:00,40.6,15.1,29.35,NNW,338,0.0,0.0,35,0.00,,SKC,0.04,VWS V14.01,2013-11-08 02:56:00,
2013-11-07 22:01:00,40.6,15.8,29.35,NNW,338,0.0,0.0,36,0.00,,SKC,0.04,VWS V14.01,2013-11-08 03:01:00,
2013-11-07 22:06:00,40.5,15.6,29.35,NNW,338,0.0,0.0,36,0.00,,SKC,0.04,VWS V14.01,2013-11-08 03:06:00,
2013-11-07 22:11:00,40.5,15.0,29.35,NNW,338,0.0,0.0,35,0.00,,SKC,0.04,VWS V14.01,2013-11-08 03:11:00,
2013-11-07 22:16:00,40.6,16.4,29.35,WNW,301,0.0,0.0,37,0.00,,SKC,0.04,VWS V14.01,2013-11-08 03:16:00,
2013-11-07 22:21:00,40.6,16.4,29.35,WNW,301,0.0,0.0,37,0.00,,SKC,0.04,VWS V14.01,2013-11-08 03:21:00,
2013-11-07 22:26:00,41.0,16.7,29.35,WNW,284,5.6,5.6,37,0.00,,SKC,0.04,VWS V14.01,2013-11-08 03:26:00,
2013-11-07 22:31:00,41.0,16.7,29.35,WNW,284,0.0,0.0,37,0.00,,SKC,0.04,VWS V14.01,2013-11-08 03:31:00,
2013-11-07 22:36:00,41.0,16.7,29.35,West,275,0.0,0.0,37,0.00,,SKC,0.04,VWS V14.01,2013-11-08 03:36:00,
2013-11-07 22:41:00,41.0,16.7,29.35,West,275,0.0,0.0,37,0.00,,SKC,0.04,VWS V14.01,2013-11-08 03:41:00,
2013-11-07 22:46:00,40.6,15.1,29.35,SSW,201,0.0,0.0,35,0.00,,SKC,0.04,VWS V14.01,2013-11-08 03:46:00,
2013-11-07 22:51:00,40.5,15.0,29.35,NW,312,0.0,0.0,35,0.00,,SKC,0.04,VWS V14.01,2013-11-08 03:51:00,
2013-11-07 22:56:00,40.6,16.4,29.35,NW,319,0.0,0.0,37,0.00,,SKC,0.04,VWS V14.01,2013-11-08 03:56:00,
2013-11-07 23:01:00,40.8,17.8,29.35,NW,319,0.0,0.0,39,0.00,,SKC,0.04,VWS V14.01,2013-11-08 04:01:00,
2013-11-07 23:06:00,41.0,18.0,29.35,NW,319,0.0,0.0,39,0.00,,SKC,0.04,VWS V14.01,2013-11-08 04:06:00,
2013-11-07 23:11:00,41.0,18.0,29.35,NW,319,0.0,0.0,39,0.00,,SKC,0.04,VWS V14.01,2013-11-08 04:11:00,
2013-11-07 23:16:00,41.0,18.0,29.35,NW,319,0.0,0.0,39,0.00,,SKC,0.04,VWS V14.01,2013-11-08 04:16:00,
2013-11-07 23:21:00,40.5,17.5,29.35,NW,319,0.0,0.0,39,0.00,,SKC,0.04,VWS V14.01,2013-11-08 04:21:00,
2013-11-07 23:26:00,40.1,17.1,29.35,WNW,297,0.0,0.0,39,0.00,,SKC,0.04,VWS V14.01,2013-11-08 04:26:00,
2013-11-07 23:31:00,40.1,16.5,29.35,WNW,297,0.0,0.0,38,0.00,,SKC,0.04,VWS V14.01,2013-11-08 04:31:00,
2013-11-07 23:36:00,40.1,16.5,29.35,WNW,297,0.0,0.0,38,0.00,,SKC,0.04,VWS V14.01,2013-11-08 04:36:00,
2013-11-07 23:41:00,40.1,16.5,29.35,WSW,248,0.0,0.0,38,0.00,,SKC,0.04,VWS V14.01,2013-11-08 04:41:00,
2013-11-07 23:46:00,40.1,16.5,29.35,WSW,248,0.0,0.0,38,0.00,,SKC,0.04,VWS V14.01,2013-11-08 04:46:00,
2013-11-07 23:51:00,40.1,16.5,29.35,WSW,249,0.0,0.0,38,0.00,,SKC,0.04,VWS V14.01,2013-11-08 04:51:00,
2013-11-07 23:56:00,40.5,18.1,29.35,SW,220,0.0,0.0,40,0.00,,SKC,0.04,VWS V14.01,2013-11-08 04:56:00,